Location: *
(46.1866°S, 178.5290°W)
Time: 19:59:10
(UTC+00:00)

Meteor 2-3 Rocket - Pass Details

Date: 19 May 2021
Orbit: 840 x 887 km, 81.2° (Epoch: 12 June)

Event Time Altitude Azimuth Distance (km) Brightness Sun altitude
Rises 06:39:21 0° 343° (NNW) 3,403 7.1 -22.5°
Reaches altitude 10° 06:41:45 10° 340° (NNW) 2,480 6.4 -22.9°
Maximum altitude 06:47:22 68° 257° (WSW) 931 4.0 -23.9°
Drops below altitude 10° 06:53:08 10° 173° (S) 2,541 6.1 -24.9°
Sets 06:55:37 0° 170° (S) 3,492 6.8 -25.3°
